Location: Bodham
(52.9000°N, 1.1667°E)
Time: 12:19:30
(UTC+00:00)

Cosmos 1980 Rocket - Pass Details

Date: 17 July 2025
Orbit: 827 x 850 km, 71.0° (Epoch: 15 April)

Event Time Altitude Azimuth Distance (km) Brightness Sun altitude
Exits shadow 21:58:13 - 101° (E) 3,258 4.9 -11.4°
Enters shadow 23:05:45 -62° 203° (SSW) 12,135 8.0 -15.1°
Maximum altitude 23:42:25 29° 105° (ESE) 1,500 3.3 -16.0°
